Lid_Strength_Index
4 4 4 4 4 4 4 4 4 4 4 4 4 4 4 4 4 4 4 4 4 4 4 3 3 2 4 8 5 1 -1 -1 0 1 2 3 4 5 7 6 6 7 7 6 6 6 5
4 4 4 4 4 4 4 4 4 4 4 4 4 4 4 4 4 4 4 4 4 4 4 3 3 2 3 9 2 -0 0 0 1 2 3 3 4 4 5 6 7 7 7 6 6 6 5
4 4 4 4 4 4 4 4 4 4 4 4 4 4 4 4 4 4 4 4 4 4 3 3 2 2 5 7 4 -0 1 1 1 2 3 2 2 5 5 6 5 6 8 7 6 6 6
4 4 4 4 4 4 4 4 4 4 4 4 4 4 4 4 4 4 4 4 4 4 3 2 1 3 7 3 4 4 1 2 1 2 2 2 2 5 7 6 6 8 9 11 7 7 6
4 4 4 4 4 5 5 5 5 5 5 5 5 5 5 4 4 4 4 4 3 2 2 1 3 5 8 1 4 3 3 2 2 2 2 1 3 7 6 9 10 9 11 11 9 7 7
4 4 4 4 4 5 5 5 5 5 5 5 5 5 5 5 5 5 5 5 4 2 2 1 2 7 5 6 3 3 4 2 3 3 4 4 6 8 9 11 13 11 11 11 10 8 7
4 4 4 4 4 4 5 5 5 5 5 5 5 5 5 5 5 6 7 7 7 6 6 6 6 6 5 3 2 4 3 4 3 4 8 6 9 11 9 8 8 8 9 10 8 7 9
3 4 4 5 4 4 5 5 5 5 5 5 5 6 5 6 6 6 7 7 8 7 10 7 6 6 4 4 5 4 3 7 6 8 7 8 10 7 6 6 7 8 10 10 8 7 9
3 3 4 4 4 4 5 5 5 6 6 6 6 6 6 6 6 6 8 7 5 6 11 9 7 6 5 5 6 5 5 6 8 8 8 9 8 6 6 7 8 9 11 10 10 8 9
3 3 4 4 4 4 5 5 5 6 6 6 6 6 6 7 8 8 8 5 5 6 13 10 8 6 5 5 7 4 4 5 7 9 8 9 6 7 7 8 8 12 7 8 8 10 13
3 4 4 4 4 5 5 5 6 6 6 6 6 6 7 7 9 8 6 4 5 7 17 7 6 3 5 7 6 6 4 5 8 7 8 8 8 8 8 8 7 9 7 8 8 11 12
3 3 4 4 4 4 5 6 6 6 6 6 6 6 7 8 8 7 6 5 7 13 16 8 6 6 7 6 6 5 5 4 5 7 7 7 5 6 7 6 6 6 8 9 10 12 15
3 3 3 4 4 4 5 6 6 6 6 6 7 7 8 8 10 7 6 7 13 15 7 9 8 7 7 8 7 7 7 8 9 11 11 8 8 6 6 8 7 8 11 16 16 15 15
3 3 4 4 4 4 5 6 6 6 6 7 7 7 7 6 7 7 6 10 15 9 9 7 7 7 8 7 7 7 8 9 7 8 11 11 12 8 6 8 9 10 12 15 17 16 14
3 3 3 4 4 4 5 5 6 6 6 7 8 8 7 5 5 5 8 13 12 8 7 8 8 9 9 8 7 8 8 9 7 7 10 11 11 6 6 6 7 10 12 10 14 13 15
3 3 4 4 4 4 5 5 6 6 6 7 10 9 7 4 4 6 10 12 9 7 7 8 11 9 10 9 9 9 9 7 7 6 6 9 12 8 7 6 6 9 8 13 13 16 17
4 4 4 4 4 4 5 5 6 6 7 7 9 8 5 3 3 7 11 10 8 6 6 8 9 9 9 9 9 10 9 7 6 6 6 8 9 10 8 9 10 9 10 12 12 13 15
4 4 4 4 4 4 5 5 6 6 7 8 9 10 4 3 8 8 9 7 7 6 5 7 7 8 9 9 10 9 9 8 6 6 9 7 9 11 10 7 6 8 9 10 14 14 13
4 4 4 4 4 4 4 5 6 6 6 9 10 8 4 4 11 10 7 6 6 6 6 7 7 7 7 9 11 8 8 6 6 7 8 8 11 13 13 10 8 9 8 10 11 12 13
4 4 4 4 4 4 4 4 5 5 5 8 10 10 7 5 6 7 8 8 8 5 6 6 7 7 8 9 8 9 8 7 6 7 5 6 10 13 15 12 9 10 9 9 11 13 12
5 4 4 4 3 3 3 3 3 4 5 8 8 8 6 8 8 7 7 7 8 8 6 6 8 7 8 10 9 9 8 8 7 5 6 8 12 10 10 8 8 9 9 9 10 11 12
5 4 3 3 2 2 3 3 3 4 5 8 9 9 7 8 7 8 7 8 8 7 7 8 8 7 7 9 9 9 8 9 9 7 7 8 12 12 12 8 9 9 9 8 9 10 10
5 4 2 2 2 2 3 3 4 5 6 7 5 5 7 8 8 8 7 7 7 6 5 5 6 7 8 7 6 6 6 7 7 8 9 10 11 13 15 10 10 12 12 11 11 10 11
4 3 2 2 2 2 3 3 4 4 5 6 6 6 8 10 9 8 7 6 7 6 7 6 5 7 6 4 4 5 5 6 6 6 7 10 12 12 14 13 17 11 8 9 11 10 10
4 4 3 2 2 3 2 3 4 4 4 6 6 6 7 10 8 9 7 7 6 6 6 6 6 5 4 5 9 10 10 9 8 7 9 8 10 13 15 15 12 12 10 11 12 12 9
2 4 3 2 2 2 2 3 4 4 4 5 6 4 5 8 9 7 9 7 7 8 7 6 4 4 4 7 9 14 15 12 12 9 8 8 9 11 12 16 17 13 9 7 8 15 8
2 3 3 2 2 2 2 3 3 4 3 5 5 4 5 8 7 7 9 8 7 7 8 6 7 6 5 9 12 13 13 10 14 14 14 13 12 13 12 14 14 9 7 7 14 14 8
2 3 3 2 2 2 2 3 3 4 3 4 5 4 5 7 7 6 6 7 7 7 8 7 8 7 9 12 13 13 13 12 12 11 13 14 15 15 14 15 18 7 8 13 10 7 7
3 3 2 2 2 2 2 2 3 3 3 4 6 3 3 5 7 6 6 5 6 6 7 7 7 8 8 10 10 11 13 12 12 15 10 14 12 14 13 14 8 7 8 6 6 7 6